Klamath Falls, OR

11:53 PM PDT on October 17, 2017 (GMT -0700)
Klamath Falls International

Weather History for KLMT - March, 2014

Change the Weather History Date:

Friday, March 14, 2014

  Actual Average Record
Temperature  
Mean Temperature 44 °F 38 °F  
Max Temperature 58 °F 50 °F 71 °F (2017)
Min Temperature 29 °F 26 °F 8 °F (1967)
Degree Days  
Heating Degree Days 21 27  
Month to date heating degree days 300 383  
Since 1 July heating degree days 5083 5224  
Cooling Degree Days 0 0  
Month to date cooling degree days 0 0  
Year to date cooling degree days 0 0  
Moisture  
Dew Point 31 °F    
Average Humidity 62    
Maximum Humidity 85    
Minimum Humidity 32    
Precipitation  
Precipitation T in 0.03 in 0.44 in (1987)
Month to date precipitation 1.35 0.53  
Year to date precipitation 4.00 4.30  
Sea Level Pressure  
Sea Level Pressure 30.20 in    
Wind  
Wind Speed 6 mph (WNW)    
Max Wind Speed 20 mph    
Max Gust Speed 24 mph    
Visibility 10 miles    
Events      
T = Trace of Precipitation, MM = Missing Value Source: NWS Daily Summary

Daily Weather History Graph

Daily Weather History Graph

Search for Another Location

Airport or City:

Trip Planner

Search our weather history database for the weather conditions in past years. The results will help you decide how hot, cold, wet, or windy it might be!

Date:

Astronomy

Mar. 14, 2014 Rise Set
Actual Time 7:20 AM PDT 7:12 PM PDT
Civil Twilight 6:52 AM PDT 7:40 PM PDT
Nautical Twilight 6:20 AM PDT 8:12 PM PDT
Astronomical Twilight 5:47 AM PDT 8:45 PM PDT
Moon 5:38 PM PDT (3/14) 6:04 AM PDT (3/14)
Length of Visible Light 12h 47m
Length of Day
11h 52m
Waxing Gibbous, 96% of the Moon is Illuminated
Mar 14
Waxing Gibbous
Mar 16
Full
Mar 23
Last Quarter
Mar 30
New
Apr 7
First Quarter

Hourly Weather History & Observations

Time (PDT) Temp. Windchill Dew Point Humidity Pressure Visibility Wind Dir Wind Speed Gust Speed Precip Events Conditions
12:53 AM 37.9 °F 35.5 °F 30.0 °F 73% 30.06 in 10.0 mi SE 3.5 mph - N/A   Scattered Clouds
1:53 AM 35.1 °F 31.0 °F 28.9 °F 78% 30.07 in 10.0 mi SE 4.6 mph - N/A   Clear
2:53 AM 33.1 °F - 28.0 °F 82% 30.08 in 10.0 mi Calm Calm - N/A   Clear
3:53 AM 35.1 °F - 28.9 °F 78% 30.07 in 10.0 mi Calm Calm - N/A   Partly Cloudy
4:53 AM 37.0 °F 33.3 °F 30.9 °F 79% 30.07 in 10.0 mi SSE 4.6 mph - N/A   Clear
5:53 AM 39.0 °F 35.7 °F 33.1 °F 79% 30.09 in 10.0 mi SW 4.6 mph - N/A   Overcast
6:53 AM 37.9 °F - 33.1 °F 83% 30.14 in 10.0 mi Calm Calm - N/A   Overcast
7:53 AM 41.0 °F - 34.0 °F 76% 30.14 in 10.0 mi Calm Calm - 0.00 in   Overcast
8:53 AM 44.1 °F 41.5 °F 35.1 °F 71% 30.17 in 10.0 mi South 4.6 mph - N/A   Mostly Cloudy
9:53 AM 48.9 °F - 37.0 °F 64% 30.17 in 10.0 mi SW 5.8 mph - N/A   Mostly Cloudy
10:53 AM 50.0 °F - 36.0 °F 59% 30.20 in 10.0 mi West 19.6 mph - N/A   Mostly Cloudy
11:53 AM 53.1 °F - 35.1 °F 50% 30.21 in 10.0 mi West 11.5 mph 24.2 mph N/A   Partly Cloudy
12:53 PM 55.0 °F - 35.1 °F 47% 30.22 in 10.0 mi NNW 9.2 mph - N/A   Clear
1:53 PM 55.9 °F - 34.0 °F 44% 30.23 in 10.0 mi NNW 9.2 mph 16.1 mph N/A   Partly Cloudy
2:53 PM 57.0 °F - 30.0 °F 36% 30.23 in 10.0 mi NNW 11.5 mph 18.4 mph N/A   Clear
3:53 PM 57.0 °F - 30.0 °F 36% 30.23 in 10.0 mi NW 11.5 mph - N/A   Partly Cloudy
4:53 PM 57.0 °F - 28.0 °F 33% 30.24 in 10.0 mi NNW 16.1 mph - N/A   Partly Cloudy
5:53 PM 55.9 °F - 26.1 °F 32% 30.24 in 10.0 mi NNW 11.5 mph - N/A   Clear
6:53 PM 52.0 °F - 27.0 °F 38% 30.27 in 10.0 mi WNW 5.8 mph - N/A   Clear
7:53 PM 46.0 °F 43.1 °F 28.0 °F 50% 30.29 in 10.0 mi NW 5.8 mph - N/A   Clear
8:53 PM 39.9 °F - 28.0 °F 63% 30.33 in 10.0 mi Calm Calm - N/A   Clear
9:53 PM 35.1 °F 32.2 °F 28.0 °F 76% 30.35 in 10.0 mi North 3.5 mph - N/A   Clear
10:53 PM 33.1 °F - 27.0 °F 78% 30.36 in 10.0 mi Calm Calm - N/A   Clear
11:53 PM 30.0 °F - 25.0 °F 82% 30.36 in 10.0 mi Calm Calm - N/A   Clear